• In Hungary
  • List of Countries
  • For 7 days
  • Water Temperature
  • Satellite Maps
  • Weather Map
  • News
  • Weather Widgets
  • user-avatar
    Login

    Hourly Weather Zagorzyn

    Today, 23 October, Tuesday

    Time Temperature Precipitation Wind Pressure Humidity
    00:00 +5°C° 0 mm 4 mps 758 mmHg 84%
    01:00 +4°C° 0 mm 4 mps 758 mmHg 84%
    02:00 +4°C° 0 mm 4 mps 757 mmHg 84%
    03:00 +4°C° 0 mm 4 mps 757 mmHg 84%
    04:00 +3°C° 0 mm 5 mps 756 mmHg 84%
    05:00 +3°C° 0 mm 5 mps 755 mmHg 81%
    06:00 +4°C° 0 mm 6 mps 754 mmHg 78%
    07:00 +4°C° 0 mm 7 mps 754 mmHg 75%
    08:00 +4°C° 0.3 mm 8 mps 752 mmHg 74%
    09:00 +5°C° 0.3 mm 9 mps 751 mmHg 73%
    10:00 +5°C° 0.3 mm 10 mps 750 mmHg 71%
    11:00 +5°C° 1.1 mm 10 mps 749 mmHg 73%
    12:00 +6°C° 1.1 mm 11 mps 748 mmHg 76%
    13:00 +6°C° 1.1 mm 11 mps 747 mmHg 78%
    14:00 +6°C° 0.3 mm 11 mps 746 mmHg 79%
    15:00 +7°C° 0.3 mm 11 mps 745 mmHg 79%
    16:00 +8°C° 0.3 mm 12 mps 744 mmHg 80%
    17:00 +8°C° 1 mm 11 mps 743 mmHg 81%
    18:00 +8°C° 1 mm 11 mps 743 mmHg 83%
    19:00 +9°C° 1 mm 10 mps 742 mmHg 84%
    20:00 +9°C° 1.6 mm 11 mps 742 mmHg 85%
    21:00 +9°C° 1.6 mm 11 mps 741 mmHg 85%
    22:00 +9°C° 1.6 mm 11 mps 740 mmHg 85%
    23:00 +9°C° 1.7 mm 10 mps 740 mmHg 84%

    Tomorrow, 24 October, Wednesday

    Time Temperature Precipitation Wind Pressure Humidity
    00:00 +9°C° 1.7 mm 10 mps 739 mmHg 84%
    01:00 +9°C° 1.7 mm 10 mps 738 mmHg 83%
    02:00 +8°C° 0.8 mm 10 mps 738 mmHg 78%
    03:00 +7°C° 0.8 mm 11 mps 738 mmHg 74%
    04:00 +5°C° 0.8 mm 12 mps 739 mmHg 69%
    05:00 +4°C° 0.1 mm 11 mps 740 mmHg 67%
    06:00 +5°C° 0.1 mm 10 mps 741 mmHg 66%
    07:00 +3°C° 0.1 mm 9 mps 742 mmHg 64%
    08:00 +5°C° 0.1 mm 9 mps 742 mmHg 59%
    09:00 +5°C° 0.1 mm 10 mps 743 mmHg 54%
    10:00 +6°C° 0.1 mm 11 mps 744 mmHg 49%
    11:00 +6°C° 0 mm 11 mps 744 mmHg 47%
    12:00 +7°C° 0 mm 11 mps 745 mmHg 44%
    13:00 +7°C° 0 mm 11 mps 745 mmHg 42%
    14:00 +7°C° 0 mm 10 mps 746 mmHg 43%
    15:00 +6°C° 0 mm 9 mps 746 mmHg 44%
    16:00 +6°C° 0 mm 9 mps 747 mmHg 45%
    17:00 +5°C° 0 mm 8 mps 748 mmHg 48%
    18:00 +5°C° 0 mm 8 mps 748 mmHg 51%
    19:00 +4°C° 0 mm 7 mps 749 mmHg 53%
    20:00 +4°C° 0 mm 7 mps 749 mmHg 56%
    21:00 +4°C° 0 mm 7 mps 749 mmHg 59%
    22:00 +3°C° 0 mm 6 mps 750 mmHg 62%
    23:00 +3°C° 0 mm 6 mps 750 mmHg 63%

    Day after tomorrow, 25 October, Thursday

    Time Temperature Precipitation Wind Pressure Humidity
    00:00 +3°C° 0 mm 6 mps 750 mmHg 65%
    01:00 +3°C° 0 mm 6 mps 750 mmHg 67%
    02:00 +3°C° 0 mm 6 mps 749 mmHg 70%
    03:00 +3°C° 0 mm 6 mps 749 mmHg 73%
    04:00 +3°C° 0 mm 6 mps 748 mmHg 77%
    05:00 +3°C° 0.7 mm 6 mps 747 mmHg 81%
    06:00 +3°C° 0.7 mm 6 mps 746 mmHg 84%
    07:00 +4°C° 0.7 mm 7 mps 746 mmHg 88%
    08:00 +5°C° 0.4 mm 8 mps 745 mmHg 87%
    09:00 +7°C° 0.4 mm 8 mps 744 mmHg 86%
    10:00 +8°C° 0.4 mm 9 mps 744 mmHg 85%
    11:00 +8°C° 0.2 mm 9 mps 743 mmHg 82%
    12:00 +9°C° 0.2 mm 10 mps 743 mmHg 80%
    13:00 +9°C° 0.2 mm 10 mps 743 mmHg 77%
    14:00 +8°C° 0.1 mm 9 mps 744 mmHg 75%
    15:00 +8°C° 0.1 mm 9 mps 744 mmHg 74%
    16:00 +8°C° 0.1 mm 9 mps 744 mmHg 72%
    17:00 +7°C° 0 mm 8 mps 745 mmHg 74%
    18:00 +8°C° 0 mm 7 mps 745 mmHg 75%
    19:00 +6°C° 0 mm 7 mps 746 mmHg 77%
    20:00 +7°C° 0 mm 6 mps 746 mmHg 78%
    21:00 +5°C° 0 mm 6 mps 746 mmHg 80%
    22:00 +6°C° 0 mm 5 mps 747 mmHg 82%
    23:00 +6°C° 0 mm 5 mps 747 mmHg 83%

    26 October, Friday

    Time Temperature Precipitation Wind Pressure Humidity
    00:00 +6°C° 0 mm 5 mps 747 mmHg 83%
    01:00 +5°C° 0 mm 5 mps 747 mmHg 84%
    02:00 +5°C° 0 mm 5 mps 747 mmHg 85%
    03:00 +5°C° 0 mm 4 mps 747 mmHg 87%
    04:00 +5°C° 0 mm 4 mps 747 mmHg 88%
    05:00 +5°C° 0 mm 4 mps 747 mmHg 89%
    06:00 +4°C° 0 mm 4 mps 747 mmHg 90%
    07:00 +4°C° 0 mm 3 mps 747 mmHg 91%
    08:00 +5°C° 0 mm 3 mps 747 mmHg 87%
    09:00 +7°C° 0 mm 4 mps 747 mmHg 82%
    10:00 +8°C° 0 mm 4 mps 746 mmHg 78%
    11:00 +10°C° 0 mm 4 mps 746 mmHg 75%
    12:00 +10°C° 0 mm 4 mps 746 mmHg 73%
    13:00 +11°C° 0 mm 4 mps 745 mmHg 70%
    14:00 +11°C° 0 mm 3 mps 745 mmHg 73%
    15:00 +11°C° 0 mm 3 mps 744 mmHg 75%
    16:00 +11°C° 0 mm 3 mps 744 mmHg 78%
    17:00 +11°C° 0 mm 3 mps 744 mmHg 79%
    18:00 +11°C° 0 mm 4 mps 743 mmHg 79%
    19:00 +10°C° 0 mm 4 mps 743 mmHg 80%
    20:00 +10°C° 0 mm 4 mps 743 mmHg 80%
    21:00 +9°C° 0 mm 5 mps 742 mmHg 80%
    22:00 +9°C° 0 mm 5 mps 742 mmHg 81%
    23:00 +9°C° 0 mm 5 mps 741 mmHg 81%

    27 October, Saturday

    Time Temperature Precipitation Wind Pressure Humidity
    00:00 +10°C° 0 mm 4 mps 741 mmHg 80%
    01:00 +10°C° 0 mm 4 mps 741 mmHg 80%
    02:00 +10°C° 0 mm 4 mps 741 mmHg 82%
    03:00 +8°C° 0 mm 4 mps 740 mmHg 84%
    04:00 +8°C° 0 mm 4 mps 740 mmHg 85%
    05:00 +8°C° 0 mm 4 mps 740 mmHg 85%
    06:00 +7°C° 0 mm 4 mps 741 mmHg 86%
    07:00 +7°C° 0 mm 5 mps 741 mmHg 86%
    08:00 +7°C° 0.1 mm 5 mps 741 mmHg 80%
    09:00 +7°C° 0.1 mm 5 mps 742 mmHg 74%
    10:00 +8°C° 0.1 mm 6 mps 742 mmHg 68%
    11:00 +8°C° 0 mm 6 mps 742 mmHg 64%
    12:00 +8°C° 0 mm 6 mps 742 mmHg 60%
    13:00 +8°C° 0 mm 6 mps 742 mmHg 56%
    14:00 +8°C° 0 mm 5 mps 742 mmHg 57%
    15:00 +8°C° 0 mm 4 mps 742 mmHg 59%
    16:00 +7°C° 0 mm 4 mps 742 mmHg 60%
    17:00 +8°C° 0 mm 3 mps 742 mmHg 62%
    18:00 +7°C° 0 mm 3 mps 742 mmHg 64%
    19:00 +7°C° 0 mm 3 mps 742 mmHg 66%
    20:00 +7°C° 0 mm 3 mps 742 mmHg 67%
    21:00 +7°C° 0 mm 2 mps 742 mmHg 68%
    22:00 +7°C° 0 mm 2 mps 742 mmHg 69%
    23:00 +6°C° 0 mm 2 mps 742 mmHg 70%

    28 October, Sunday

    Time Temperature Precipitation Wind Pressure Humidity
    00:00 +6°C° 0 mm 2 mps 742 mmHg 71%
    01:00 +6°C° 0 mm 2 mps 742 mmHg 72%
    02:00 +7°C° 0.1 mm 1 mps 742 mmHg 72%
    03:00 +7°C° 0.1 mm 1 mps 742 mmHg 73%
    04:00 +6°C° 0.1 mm 1 mps 741 mmHg 73%
    05:00 +6°C° 0.1 mm 1 mps 741 mmHg 73%
    06:00 +6°C° 0.1 mm 1 mps 741 mmHg 73%
    07:00 +6°C° 0.1 mm 1 mps 741 mmHg 73%
    08:00 +5°C° 0.2 mm 2 mps 742 mmHg 72%
    09:00 +6°C° 0.2 mm 2 mps 742 mmHg 70%
    10:00 +5°C° 0.2 mm 3 mps 742 mmHg 69%
    11:00 +5°C° 0.1 mm 3 mps 743 mmHg 66%
    12:00 +6°C° 0.1 mm 4 mps 743 mmHg 63%
    13:00 +7°C° 0.1 mm 4 mps 743 mmHg 60%
    14:00 +6°C° 0 mm 4 mps 744 mmHg 60%
    15:00 +6°C° 0 mm 4 mps 744 mmHg 60%
    16:00 +7°C° 0 mm 3 mps 745 mmHg 61%
    17:00 +5°C° 0 mm 3 mps 745 mmHg 63%
    18:00 +4°C° 0 mm 3 mps 746 mmHg 65%
    19:00 +4°C° 0 mm 3 mps 746 mmHg 68%
    20:00 +3°C° 0 mm 3 mps 747 mmHg 69%
    21:00 +3°C° 0 mm 3 mps 747 mmHg 71%
    22:00 +2°C° 0 mm 3 mps 748 mmHg 73%
    23:00 +2°C° 0 mm 3 mps 748 mmHg 75%

    29 October, Monday

    Time Temperature Precipitation Wind Pressure Humidity
    00:00 +2°C° 0 mm 3 mps 748 mmHg 76%
    01:00 +2°C° 0 mm 3 mps 749 mmHg 78%
    02:00 +1°C° 0 mm 3 mps 749 mmHg 80%
    03:00 +1°C° 0 mm 3 mps 749 mmHg 81%
    04:00 +1°C° 0 mm 3 mps 749 mmHg 83%
    05:00 +1°C° 0 mm 3 mps 750 mmHg 84%
    06:00 +2°C° 0 mm 2 mps 750 mmHg 85%
    07:00 +1°C° 0 mm 2 mps 750 mmHg 86%
    08:00 +3°C° 0 mm 2 mps 751 mmHg 80%
    09:00 +4°C° 0 mm 2 mps 751 mmHg 74%
    10:00 +5°C° 0 mm 2 mps 751 mmHg 68%
    11:00 +6°C° 0 mm 2 mps 751 mmHg 65%
    12:00 +6°C° 0 mm 2 mps 751 mmHg 62%
    13:00 +8°C° 0 mm 1 mps 751 mmHg 60%
    14:00 +8°C° 0 mm 1 mps 751 mmHg 61%
    15:00 +7°C° 0 mm 1 mps 751 mmHg 63%
    16:00 +7°C° 0 mm 1 mps 750 mmHg 65%
    17:00 +7°C° 0 mm 1 mps 751 mmHg 66%
    18:00 +7°C° 0 mm 1 mps 751 mmHg 67%
    19:00 +6°C° 0 mm 1 mps 751 mmHg 68%
    20:00 +5°C° 0 mm 2 mps 751 mmHg 69%
    21:00 +5°C° 0 mm 2 mps 750 mmHg 71%
    22:00 +5°C° 0 mm 2 mps 750 mmHg 72%
    23:00 +4°C° 0.2 mm 3 mps 750 mmHg 73%
    Show more